South Lake Tahoe, CA

5:12 PM PDT on June 21, 2018 (GMT -0700)
Lake Tahoe

Weather History for KTVL - October, 2017

Change the Weather History Date:

Wednesday, October 11, 2017

  Actual Average Record
Temperature  
Mean Temperature 43 °F 47 °F  
Max Temperature 58 °F 65 °F 78 °F (2015)
Min Temperature 28 °F 29 °F 20 °F (1998)
Degree Days  
Heating Degree Days 22 18  
Month to date heating degree days 231 184  
Since 1 July heating degree days 675 810  
Cooling Degree Days 0 0  
Month to date cooling degree days 0 0  
Year to date cooling degree days 81 31  
Moisture  
Dew Point 24 °F    
Average Humidity 46    
Maximum Humidity 72    
Minimum Humidity 20    
Precipitation  
Precipitation 0.00 in - 1.35 in (1984)
Month to date precipitation 0.00  
Year to date precipitation 35.30  
Sea Level Pressure  
Sea Level Pressure 29.91 in    
Wind  
Wind Speed 10 mph (South)    
Max Wind Speed 28 mph    
Max Gust Speed 38 mph    
Visibility 9 miles    
Events      
T = Trace of Precipitation, MM = Missing Value Source: NWS Daily Summary

Daily Weather History Graph

Daily Weather History Graph

Search for Another Location

Airport or City:

Astronomy

Oct. 11, 2017 Rise Set
Actual Time 7:05 AM PDT 6:26 PM PDT
Civil Twilight 6:39 AM PDT 6:53 PM PDT
Nautical Twilight 6:08 AM PDT 7:24 PM PDT
Astronomical Twilight 5:37 AM PDT 7:55 PM PDT
Moon 11:37 PM PDT (10/11) 1:24 PM PDT (10/11)
Length of Visible Light 12h 14m
Length of Day
11h 20m
Waning Gibbous, 58% of the Moon is Illuminated
Oct 11
Waning Gibbous
Oct 12
Last Quarter
Oct 19
New
Oct 27
First Quarter
Nov 3
Full

Hourly Weather History & Observations

Time (PDT) Temp. Windchill Dew Point Humidity Pressure Visibility Wind Dir Wind Speed Gust Speed Precip Events Conditions
12:53 AM 48.9 °F - 14.0 °F 25% 29.87 in 10.0 mi SSE 8.1 mph - N/A   Clear
1:53 AM 50.0 °F - 10.9 °F 21% 29.86 in 10.0 mi South 11.5 mph 18.4 mph N/A   Clear
2:53 AM 48.0 °F - 12.9 °F 24% 29.86 in 10.0 mi SSE 9.2 mph - N/A   Clear
3:53 AM 48.0 °F - 18.0 °F 30% 29.84 in 10.0 mi SE 9.2 mph - N/A   Clear
4:53 AM 48.0 °F - 21.9 °F 36% 29.85 in 10.0 mi South 11.5 mph 18.4 mph N/A   Clear
5:53 AM 48.0 °F - 21.9 °F 36% 29.85 in 10.0 mi South 10.4 mph - N/A   Clear
6:53 AM 46.9 °F - 21.9 °F 37% 29.86 in 10.0 mi South 10.4 mph 20.7 mph N/A   Clear
7:53 AM 48.0 °F - 21.0 °F 34% 29.87 in 10.0 mi SSE 9.2 mph 20.7 mph N/A   Clear
8:53 AM 50.0 °F - 21.9 °F 33% 29.88 in 10.0 mi SSE 9.2 mph 27.6 mph N/A   Clear
9:53 AM 52.0 °F - 23.0 °F 32% 29.90 in 10.0 mi SSE 8.1 mph 19.6 mph N/A   Clear
10:53 AM 55.0 °F - 21.9 °F 28% 29.90 in 10.0 mi South 18.4 mph 29.9 mph N/A   Clear
11:53 AM 55.9 °F - 21.9 °F 27% 29.87 in 10.0 mi South 20.7 mph 35.7 mph N/A   Clear
12:53 PM 57.0 °F - 24.1 °F 28% 29.85 in 10.0 mi South 19.6 mph 38.0 mph N/A   Clear
1:53 PM 57.0 °F - 24.1 °F 28% 29.84 in 10.0 mi South 17.3 mph 33.4 mph N/A   Clear
2:53 PM 55.9 °F - 25.0 °F 30% 29.87 in 10.0 mi SSW 13.8 mph 25.3 mph N/A   Clear
3:53 PM 55.0 °F - 26.1 °F 33% 29.88 in 10.0 mi South 9.2 mph - N/A   Clear
4:53 PM 53.1 °F - 28.9 °F 40% 29.91 in 8.0 mi South 8.1 mph 19.6 mph N/A   Clear
5:45 PM 50.0 °F - 30.9 °F 48% 30.02 in 4.0 mi SE 5.8 mph - N/A   Haze
5:53 PM 50.0 °F - 32.0 °F 50% 29.92 in 4.0 mi South 10.4 mph - N/A   Haze
6:49 PM 48.2 °F - 30.2 °F 50% 30.04 in 5.0 mi South 9.2 mph - N/A   Haze
6:53 PM 46.9 °F - 30.9 °F 54% 29.94 in 5.0 mi South 10.4 mph - N/A   Haze
7:53 PM 46.0 °F 39.9 °F 30.0 °F 54% 29.96 in 6.0 mi South 13.8 mph - N/A   Haze
8:53 PM 46.0 °F 41.9 °F 27.0 °F 47% 29.96 in 9.0 mi SSW 8.1 mph - N/A   Clear
9:53 PM 37.9 °F - 27.0 °F 65% 30.01 in 7.0 mi Calm Calm - N/A   Clear
10:53 PM 34.0 °F - 25.0 °F 70% 30.02 in 8.0 mi Calm Calm - N/A   Clear
11:53 PM 30.9 °F - 23.0 °F 72% 30.04 in 10.0 mi Calm Calm - N/A   Clear